Index of /shared/routes/5cd765dbe13d2abfb299ae17763b57bc

[ICO]NameLast modifiedSizeDescription

[PARENTDIR]Parent Directory  -  
[   ]110630-2049-Untitled.kmz2011-06-30 17:17 8.5K 
[   ]110630-2049-Untitled.kmz.php2011-06-30 17:17 649  
[IMG]110630-2049-Untitled.kmz.png2011-06-30 17:17 0  
[   ]110704-0738-Untitled.kmz2011-07-04 03:55 6.5K 
[   ]110704-0738-Untitled.kmz.php2011-07-04 03:55 654  
[IMG]110704-0738-Untitled.kmz.png2011-07-04 03:55 0  
[   ]110716-0214-Гора-Моисея.kmz2011-07-18 22:54 60K 
[   ]110716-0214-Гора-Моисея.kmz.php2011-07-18 22:54 680  
[IMG]110716-0214-Гора-Моисея.kmz.png2011-07-18 22:54 0  
[   ]110827-1903-Велосипед.kmz2011-08-27 15:56 9.0K 
[   ]110827-1903-Велосипед.kmz.php2011-08-27 15:56 645  
[IMG]110827-1903-Велосипед.kmz.png2011-08-27 15:56 0  
[   ]120616-1846-Велосипед.kmz2012-06-16 17:06 38K 
[   ]120616-1846-Велосипед.kmz.php2012-06-16 17:06 662  
[IMG]120616-1846-Велосипед.kmz.png2012-06-16 17:06 0  
[   ]120617-2004-Велосипед.kmz2012-06-17 17:25 21K 
[   ]120617-2004-Велосипед.kmz.php2012-06-17 17:25 671  
[IMG]120617-2004-Велосипед.kmz.png2012-06-17 17:25 0  
[   ]120620-2105-Велосипед.kmz2012-06-20 18:32 27K 
[   ]120620-2105-Велосипед.kmz.php2012-06-20 18:32 670  
[IMG]120620-2105-Велосипед.kmz.png2012-06-20 18:32 0  

Apache/2.4.29 (Ubuntu) Server at kineticgps.com Port 80